Regional Weather Roundup
Issued by NWS Bismarck, ND

Home | Current Version | Previous Version | Text Only | Print | Product List | Glossary On
Versions: 1 2 3 4 5 6 7 8 9 10 11 12 13 14 15 16 17 18 19 20 21 22 23 24 25 26 27 28 29 30 31 32 33 34 35 36 37 38 39 40 41 42 43 44 45 46 47 48 49 50
532
ASUS43 KBIS 232210
RWRBIS

NWR BROADCAST TEXT
NATIONAL WEATHER SERVICE BISMARCK ND
500 PM CDT FRI JUN 23 2017

NOTE: "FAIR" INDICATES FEW OR NO CLOUDS BELOW 12,000 FEET WITH NO
SIGNIFICANT WEATHER AND/OR OBSTRUCTIONS TO VISIBILITY.


CITY           SKY/WX    TMP DP  RH WIND       PRES   REMARKS
WILLISTON      PTSUNNY   69  32  25 NW23G30   30.11F
MINOT          PTSUNNY   61  35  37 NW25G36   30.05R
MINOT AFB      CLOUDY    61  35  37 NW25G33   30.03S
BISMARCK       MOSUNNY   68  35  29 NW25G33   30.05S
DICKINSON      PTSUNNY   66  27  23 NW22G33   30.10S
GARRISON         N/A     63  37  38 N30G38    30.05S
HETTINGER ARPT MOSUNNY   66  29  24 NW25G37   30.13S
JAMESTOWN      CLOUDY    66  39  37 NW25G36   29.97S
HAZEN          FAIR      66  34  30 NW25G33   30.09S
LINTON         FAIR     N/A N/A N/A NW23G32   30.06S
MANDAN         FAIR      64  36  34 NW22G33   30.06S
STANLEY        MOCLDY    61  34  36 NW16G29   30.11R
TIOGA          MOCLDY    61  32  33 NW26G35   30.11S
WATFORD CITY   MOCLDY    64  34  32 NW18G30   30.11S
$$

CITY           SKY/WX    TMP DP  RH WIND       PRES   REMARKS
GRAND FORKS    PTSUNNY   66  43  43 NW18G28   29.90R
GRAND FORKS AF PTSUNNY   65  42  43 NW16G26   29.91R
DEVILS LAKE    CLOUDY    59  40  49 NW24G30   29.97R
FARGO          CLOUDY    65  44  46 NW15G24   29.91S
CAVALIER       MOCLDY    63  41  45 NW20G26   29.90S
GRAFTON        MOCLDY    63  41  45 NW18G25   29.92S
GWINNER        MOCLDY    66  41  39 NW17G25   29.96S
LANGDON        CLOUDY    57  43  58 NW22G31   29.95R
ROLLA            N/A     54  39  58 NW22      30.00R
$$

CITY           SKY/WX    TMP DP  RH WIND       PRES   REMARKS
ABERDEEN       PTSUNNY   66  39  37 NW18G29   30.00S
MOBRIDGE       MOSUNNY   70  33  25 N21       30.03S
BUFFALO          N/A     67  27  22 NW24G37   30.10S
RAPID CITY     SUNNY     70  30  22 N30G39    30.15S
GLASGOW        MOSUNNY   68  29  23 NW18G26   30.17S
SIDNEY         MOSUNNY   67  32  27 NW18      30.13S
WOLF POINT     MOSUNNY   70  29  21 NW20G31   30.15S
GLENDIVE       PTSUNNY   68  31  25 NW22      30.16F
MILES CITY     SUNNY     72  25  17 NW22G29   30.18F
BAKER          SUNNY     67  28  23 NW21G30   30.17F
$$

CITY           SKY/WX    TMP DP  RH WIND       PRES   REMARKS
BILLINGS       PTSUNNY   69  33  26 N13       30.23S
GREAT FALLS    CLOUDY    66  36  32 NE5       30.25S
REGINA         PTSUNNY   61  34  36 NW24      30.08F
ESTEVAN        PTSUNNY   63  36  36 NW24G33   30.08S
$$





USA.gov is the U.S. government's official web portal to all federal, state and local government web resources and services.